| time (UTC) | temp F | wind direction | speed MPH | gust MPH | rain 1hr in | rain 24hr in | rain mn in | humidity % | barometer mb |
| 20260503054516 | 37 | 248 | 2.0 | 3.0 | 0.00 | 0.00 | 0.00 | 83 | 1014.1 |
| 20260503053556 | 38 | 225 | 2.0 | 5.0 | 0.00 | 0.00 | 0.00 | 82 | 1014.1 |
| 20260503052516 | 38 | 225 | 3.0 | 4.0 | 0.00 | 0.00 | 0.00 | 82 | 1014.1 |
| 20260503051515 | 38 | 225 | 3.0 | 4.0 | 0.00 | 0.00 | 0.00 | 81 | 1014.1 |
| 20260503050516 | 39 | 225 | 3.0 | 5.0 | 0.00 | 0.00 | 0.00 | 80 | 1014.1 |
| 20260503045516 | 39 | 225 | 3.0 | 4.0 | 0.00 | 0.00 | 0.00 | 80 | 1014.1 |
| 20260503044516 | 40 | 225 | 4.0 | 6.0 | 0.00 | 0.00 | 0.00 | 80 | 1014.2 |
| 20260503043556 | 40 | 225 | 3.0 | 5.0 | 0.00 | 0.00 | 0.00 | 80 | 1014.2 |
| 20260503042516 | 40 | 203 | 4.0 | 6.0 | 0.00 | 0.00 | 0.00 | 79 | 1014.2 |
| 20260503041516 | 40 | 225 | 3.0 | 4.0 | 0.00 | 0.00 | 0.00 | 79 | 1014.2 |
| 20260503040516 | 40 | 225 | 3.0 | 5.0 | 0.00 | 0.00 | 0.00 | 79 | 1014.2 |
| 20260503035517 | 40 | 203 | 3.0 | 5.0 | 0.00 | 0.00 | 0.00 | 78 | 1014.2 |
| 20260503034517 | 40 | 203 | 4.0 | 6.0 | 0.00 | 0.00 | 0.00 | 78 | 1014.2 |
| 20260503033515 | 40 | 225 | 3.0 | 6.0 | 0.00 | 0.00 | 0.00 | 78 | 1014.3 |
| 20260503032556 | 40 | 180 | 3.0 | 5.0 | 0.00 | 0.00 | 0.00 | 78 | 1014.3 |
| 20260503031515 | 40 | 203 | 3.0 | 4.0 | 0.00 | 0.00 | 0.00 | 78 | 1014.4 |
| 20260503030515 | 40 | 203 | 2.0 | 3.0 | 0.00 | 0.00 | 0.00 | 78 | 1014.4 |
| 20260503025515 | 40 | 203 | 3.0 | 5.0 | 0.00 | 0.00 | 0.00 | 77 | 1014.5 |
| 20260503024515 | 40 | 203 | 3.0 | 5.0 | 0.00 | 0.00 | 0.00 | 77 | 1014.5 |
| 20260503023515 | 40 | 203 | 3.0 | 4.0 | 0.00 | 0.00 | 0.00 | 77 | 1014.7 |
| 20260503022515 | 40 | 203 | 3.0 | 5.0 | 0.00 | 0.00 | 0.00 | 77 | 1014.7 |
| 20260503021515 | 40 | 203 | 3.0 | 4.0 | 0.00 | 0.00 | 0.00 | 77 | 1014.7 |
| 20260503020515 | 40 | 203 | 1.0 | 3.0 | 0.00 | 0.00 | 0.00 | 77 | 1014.6 |
| 20260503015515 | 40 | 0.0 | 0.0 | 0.00 | 0.00 | 0.00 | 76 | 1014.5 | |
| 20260503014556 | 40 | 203 | 2.0 | 4.0 | 0.00 | 0.00 | 0.00 | 76 | 1014.6 |
| 20260503013515 | 41 | 203 | 2.0 | 4.0 | 0.00 | 0.00 | 0.00 | 76 | 1014.7 |
| 20260503012515 | 41 | 180 | 2.0 | 4.0 | 0.00 | 0.00 | 0.00 | 75 | 1014.6 |
| 20260503011556 | 41 | 180 | 1.0 | 2.0 | 0.00 | 0.00 | 0.00 | 75 | 1014.5 |
| 20260503010515 | 41 | 180 | 2.0 | 3.0 | 0.00 | 0.00 | 0.00 | 74 | 1014.5 |
| 20260503005515 | 41 | 225 | 2.0 | 4.0 | 0.00 | 0.00 | 0.00 | 74 | 1014.4 |
| 20260503004515 | 41 | 203 | 2.0 | 3.0 | 0.00 | 0.00 | 0.00 | 74 | 1014.4 |
| 20260503003515 | 41 | 203 | 2.0 | 4.0 | 0.00 | 0.00 | 0.00 | 73 | 1014.4 |
| 20260503002515 | 41 | 225 | 3.0 | 4.0 | 0.00 | 0.00 | 0.00 | 73 | 1014.5 |
| 20260503001515 | 41 | 225 | 3.0 | 5.0 | 0.00 | 0.00 | 0.00 | 73 | 1014.5 |
| 20260503000515 | 42 | 225 | 2.0 | 4.0 | 0.00 | 0.00 | 0.00 | 73 | 1014.4 |
| 20260502235515 | 42 | 225 | 2.0 | 4.0 | 0.00 | 0.00 | 0.00 | 72 | 1014.4 |
| 20260502234515 | 42 | 203 | 2.0 | 4.0 | 0.00 | 0.00 | 0.00 | 71 | 1014.4 |
| 20260502233521 | 42 | 248 | 3.0 | 4.0 | 0.00 | 0.00 | 0.00 | 69 | 1014.4 |
| 20260502233036 | 42 | 248 | 2.0 | 4.0 | 0.00 | 0.00 | 0.00 | 69 | 1014.4 |
| 20260502232056 | 42 | 293 | 2.0 | 3.0 | 0.00 | 0.00 | 0.00 | 68 | 1014.4 |
| 20260502231016 | 42 | 270 | 1.0 | 2.0 | 0.00 | 0.00 | 0.00 | 68 | 1014.3 |
| 20260502230036 | 42 | 293 | 1.0 | 2.0 | 0.00 | 0.00 | 0.00 | 67 | 1014.3 |
| 20260502225015 | 42 | 293 | 1.0 | 3.0 | 0.00 | 0.00 | 0.00 | 66 | 1014.3 |
| 20260502224015 | 42 | 315 | 3.0 | 5.0 | 0.00 | 0.00 | 0.00 | 64 | 1014.4 |
| 20260502223015 | 42 | 293 | 1.0 | 2.0 | 0.00 | 0.00 | 0.00 | 67 | 1014.4 |
| 20260502222036 | 42 | 0 | 2.0 | 5.0 | 0.00 | 0.00 | 0.00 | 65 | 1014.3 |
| 20260502221015 | 42 | 293 | 2.0 | 5.0 | 0.00 | 0.00 | 0.00 | 66 | 1014.3 |
| 20260502220015 | 42 | 293 | 2.0 | 4.0 | 0.00 | 0.00 | 0.00 | 66 | 1014.4 |
| 20260502215016 | 42 | 315 | 2.0 | 5.0 | 0.00 | 0.00 | 0.00 | 66 | 1014.3 |
| 20260502214015 | 42 | 315 | 3.0 | 6.0 | 0.00 | 0.00 | 0.00 | 65 | 1014.4 |
| 20260502213016 | 42 | 315 | 3.0 | 5.0 | 0.00 | 0.00 | 0.00 | 65 | 1014.3 |
| 20260502212015 | 42 | 315 | 3.0 | 6.0 | 0.00 | 0.00 | 0.00 | 63 | 1014.3 |
| 20260502211015 | 43 | 315 | 4.0 | 9.0 | 0.00 | 0.00 | 0.00 | 63 | 1014.2 |
| 20260502210016 | 43 | 315 | 3.0 | 7.0 | 0.00 | 0.00 | 0.00 | 61 | 1014.2 |
| 20260502205016 | 43 | 0 | 4.0 | 7.0 | 0.00 | 0.00 | 0.00 | 61 | 1014.2 |
| 20260502204536 | 44 | 293 | 4.0 | 8.0 | 0.00 | 0.00 | 0.00 | 60 | 1014.1 |
| 20260502203516 | 43 | 0 | 4.0 | 7.0 | 0.00 | 0.00 | 0.00 | 59 | 1014.1 |
| 20260502202516 | 43 | 315 | 3.0 | 7.0 | 0.00 | 0.00 | 0.00 | 60 | 1014.2 |
| 20260502201535 | 43 | 315 | 3.0 | 7.0 | 0.00 | 0.00 | 0.00 | 60 | 1014.2 |
| 20260502200515 | 43 | 293 | 4.0 | 8.0 | 0.00 | 0.00 | 0.00 | 60 | 1014.3 |
| 20260502195515 | 43 | 293 | 5.0 | 9.0 | 0.00 | 0.00 | 0.00 | 60 | 1014.4 |
| 20260502194536 | 43 | 270 | 5.0 | 9.0 | 0.00 | 0.00 | 0.00 | 63 | 1014.3 |
| 20260502193619 | 0 | 0.0 | 0.0 | 0.00 | 0.00 | 0.00 | |||
| 20260502193016 | 0 | 0.0 | 0.0 | 0.00 | 0.00 | 0.00 | |||
| 20260502192032 | 0 | 0.0 | 0.0 | 0.00 | 0.00 | 0.00 | |||
| 20260502191515 | 0 | 0.0 | 0.0 | 0.00 | 0.01 | 0.00 | |||
| 20260502190515 | 0 | 0.0 | 0.0 | 0.00 | 0.01 | 0.00 | |||
| 20260502190015 | 0 | 0.0 | 0.0 | 0.00 | 0.01 | 0.00 | |||
| 20260502185016 | 0 | 0.0 | 0.0 | 0.00 | 0.01 | 0.00 | |||
| 20260502184533 | 0 | 0.0 | 0.0 | 0.00 | 0.01 | 0.00 | |||
| 20260502184016 | 0 | 0.0 | 0.0 | 0.00 | 0.02 | 0.00 | |||
| 20260502183015 | 0 | 0.0 | 0.0 | 0.00 | 0.02 | 0.00 | |||
| 20260502182516 | 0 | 0.0 | 0.0 | 0.00 | 0.03 | 0.00 | |||
| 20260502181516 | 0 | 0.0 | 0.0 | 0.00 | 0.04 | 0.00 | |||
| 20260502181115 | 0 | 0.0 | 0.0 | 0.00 | 0.04 | 0.00 | |||
| 20260502164016 | 40 | 23 | 5.0 | 11.0 | 0.00 | 0.08 | 0.00 | 82 | 1015.2 |
| 20260502163016 | 40 | 23 | 5.0 | 8.0 | 0.00 | 0.09 | 0.00 | 85 | 1015.2 |
| 20260502162036 | 39 | 315 | 5.0 | 9.0 | 0.00 | 0.10 | 0.00 | 88 | 1015.3 |
| 20260502161016 | 38 | 315 | 5.0 | 8.0 | 0.00 | 0.10 | 0.00 | 88 | 1015.3 |
| 20260502152016 | 37 | 0 | 3.0 | 6.0 | 0.00 | 0.12 | 0.00 | 92 | 1015.3 |
| 20260502151056 | 37 | 338 | 4.0 | 8.0 | 0.00 | 0.12 | 0.00 | 92 | 1015.1 |
| 20260502123516 | 36 | 0 | 6.0 | 12.0 | 0.00 | 0.28 | 0.00 | 91 | 1013.7 |
| 20260502122516 | 36 | 338 | 5.0 | 12.0 | 0.00 | 0.28 | 0.00 | 91 | 1013.6 |
| 20260502121516 | 37 | 315 | 4.0 | 9.0 | 0.00 | 0.28 | 0.00 | 91 | 1013.7 |
| 20260502120516 | 37 | 293 | 6.0 | 12.0 | 0.00 | 0.28 | 0.00 | 90 | 1013.7 |
| 20260502115536 | 38 | 293 | 4.0 | 9.0 | 0.00 | 0.28 | 0.00 | 91 | 1013.6 |
| 20260502114516 | 38 | 270 | 5.0 | 9.0 | 0.00 | 0.28 | 0.00 | 91 | 1013.5 |
| 20260502113516 | 38 | 270 | 3.0 | 7.0 | 0.00 | 0.28 | 0.00 | 92 | 1013.4 |
| 20260502112516 | 38 | 270 | 3.0 | 5.0 | 0.00 | 0.28 | 0.00 | 92 | 1013.3 |
| 20260502111556 | 38 | 293 | 1.0 | 3.0 | 0.00 | 0.28 | 0.00 | 92 | 1013.3 |
| 20260502110516 | 37 | 270 | 3.0 | 5.0 | 0.00 | 0.28 | 0.00 | 92 | 1013.3 |
| 20260502105536 | 37 | 248 | 2.0 | 6.0 | 0.00 | 0.28 | 0.00 | 92 | 1013.3 |
| 20260502104516 | 38 | 270 | 4.0 | 6.0 | 0.00 | 0.28 | 0.00 | 92 | 1013.3 |
| 20260502103536 | 37 | 270 | 5.0 | 10.0 | 0.00 | 0.28 | 0.00 | 92 | 1013.4 |
| 20260502102516 | 38 | 270 | 4.0 | 8.0 | 0.00 | 0.28 | 0.00 | 92 | 1013.2 |
| 20260502102103 | 38 | 248 | 2.0 | 5.0 | 0.00 | 0.28 | 0.00 | 92 | 1013.1 |
| 20260502101516 | 38 | 248 | 3.0 | 6.0 | 0.00 | 0.28 | 0.00 | 92 | 1013.1 |
| 20260502100556 | 38 | 270 | 1.0 | 3.0 | 0.00 | 0.28 | 0.00 | 92 | 1013.1 |
| 20260502091516 | 39 | 248 | 5.0 | 8.0 | 0.00 | 0.28 | 0.00 | 91 | 1012.8 |
| 20260502090516 | 39 | 248 | 4.0 | 7.0 | 0.00 | 0.28 | 0.00 | 91 | 1012.9 |
| 20260502071056 | 40 | 293 | 3.0 | 8.0 | 0.00 | 0.28 | 0.00 | 91 | 1012.8 |
| 20260502070016 | 40 | 0.0 | 0.0 | 0.00 | 0.28 | 0.00 | 91 | 1012.8 |